Llagostera





Hora UTC 07:00
Temperatura 1.2 ºC
Humitat 96.0 %
Pressió 1000.8 hPa
Pluja 0.2 mm
Velocitat vent 0.0 km/h
Direcció vent

Dades diàries 2019-11-15



Hora UTC (hivern +1h; estiu +2h)
Temperatura (ºC) Humitat (%) Pressió (hPa) Velocitat vent (km/h) Precipitació (mm)
Hora UTC Aire Humitat Pressió Vel. Dir. Vel. Max Dir. Intent. màx 5 min.
00:05 1.4 95.0 1000.3 0.0 6.4 0.0
00:10 1.3 95.0 1000.2 0.0 6.4 0.0
00:15 1.2 95.0 1000.2 0.0 6.4 0.0
00:20 1.0 95.0 1000.3 0.0 6.4 0.0
00:25 1.0 95.0 1000.2 0.0 6.4 0.0
00:30 1.1 95.0 1000.2 0.0 6.4 0.0
00:35 0.9 95.0 1000.4 0.0 6.4 0.0
00:40 0.8 95.0 1000.2 0.0 6.4 0.0
00:45 0.8 95.0 1000.1 0.0 6.4 0.0
00:50 0.8 95.0 1000.2 0.0 6.4 0.0
00:55 0.6 95.0 1000.2 1.6 6.4 0.0
01:00 0.7 95.0 1000.1 3.2 6.4 0.0
01:05 0.6 95.0 1000.2 3.2 6.4 0.0
01:10 0.6 95.0 1000.3 1.6 6.4 0.0
01:15 0.6 95.0 1000.3 0.0 6.4 0.0
01:20 0.7 95.0 1000.3 0.0 6.4 0.0
01:25 0.7 95.0 1000.4 0.0 6.4 0.0
01:30 0.7 95.0 1000.3 0.0 6.4 0.0
01:35 0.8 95.0 1000.4 0.0 6.4 0.0
01:40 0.8 95.0 1000.4 0.0 6.4 0.0
01:45 0.8 95.0 1000.4 0.0 6.4 0.0
01:50 0.8 95.0 1000.5 0.0 6.4 0.0
01:55 0.8 95.0 1000.6 0.0 6.4 0.0
02:00 0.9 95.0 1000.6 0.0 6.4 0.0
02:05 0.8 95.0 1000.6 0.0 6.4 0.0
02:10 0.8 95.0 1000.5 0.0 6.4 0.0
02:15 0.8 95.0 1000.5 0.0 6.4 0.0
02:20 0.8 95.0 1000.6 0.0 6.4 0.0
02:25 0.9 96.0 1000.5 0.0 6.4 0.0
02:30 0.9 96.0 1000.6 0.0 6.4 0.0
02:35 1.1 96.0 1000.6 0.0 6.4 0.0
02:40 1.1 96.0 1000.6 0.0 6.4 0.0
02:45 1.2 96.0 1000.6 0.0 6.4 0.0
02:50 1.2 96.0 1000.6 0.0 6.4 0.0
02:55 1.3 96.0 1000.7 0.0 6.4 0.0
03:00 1.3 96.0 1000.6 0.0 6.4 0.0
03:05 1.3 96.0 1000.5 0.0 6.4 0.0
03:10 1.3 95.0 1000.6 0.0 6.4 0.0
03:15 1.2 95.0 1000.6 0.0 6.4 0.0
03:20 1.2 95.0 1000.6 0.0 6.4 0.0
03:25 1.0 95.0 1000.5 0.0 6.4 0.0
03:30 0.9 95.0 1000.5 0.0 6.4 0.0
03:35 0.8 95.0 1000.5 0.0 6.4 0.0
03:40 0.8 95.0 1000.6 0.0 6.4 0.0
03:45 0.8 95.0 1000.6 0.0 6.4 0.0
03:50 0.8 96.0 1000.6 0.0 6.4 0.2
03:55 0.8 96.0 1000.6 0.0 6.4 0.0
04:00 0.8 96.0 1000.6 0.0 6.4 0.0
04:05 0.8 96.0 1000.7 0.0 6.4 0.0
04:10 0.8 96.0 1000.8 0.0 6.4 0.0
04:15 0.8 96.0 1000.7 0.0 6.4 0.0
04:20 0.8 96.0 1000.5 0.0 6.4 0.0
04:25 0.8 96.0 1000.6 0.0 6.4 0.0
04:30 0.8 96.0 1000.6 0.0 6.4 0.0
04:35 0.9 96.0 1000.5 0.0 6.4 0.0
04:40 1.0 96.0 1000.6 0.0 6.4 0.0
04:45 1.1 96.0 1000.6 0.0 6.4 0.0
04:50 1.2 96.0 1000.6 0.0 6.4 0.0
04:55 1.2 96.0 1000.6 0.0 6.4 0.0
05:00 1.2 96.0 1000.7 0.0 6.4 0.0
05:05 1.2 96.0 1000.7 0.0 6.4 0.0
05:10 1.2 96.0 1000.6 0.0 6.4 0.0
05:15 1.1 96.0 1000.5 0.0 6.4 0.0
05:20 1.1 96.0 1000.7 0.0 6.4 0.0
05:25 1.0 96.0 1000.7 0.0 6.4 0.0
05:30 1.1 96.0 1000.7 0.0 6.4 0.0
05:35 1.2 96.0 1000.7 0.0 6.4 0.0
05:40 1.3 96.0 1000.9 0.0 6.4 0.0
05:45 1.3 96.0 1000.8 0.0 6.4 0.0
05:50 1.4 96.0 1000.8 0.0 6.4 0.0
05:55 1.4 96.0 1000.7 0.0 6.4 0.0
06:00 1.4 96.0 1000.6 0.0 6.4 0.0
06:05 1.4 96.0 1000.6 0.0 6.4 0.0
06:10 1.4 96.0 1000.6 0.0 6.4 0.0
06:15 1.4 96.0 1000.6 0.0 6.4 0.0
06:20 1.3 96.0 1000.7 0.0 6.4 0.0
06:25 1.3 96.0 1000.6 0.0 6.4 0.0
06:30 1.3 96.0 1000.8 0.0 6.4 0.0
06:35 1.2 96.0 1000.7 0.0 6.4 0.0
06:40 1.2 96.0 1000.7 0.0 6.4 0.0
06:45 1.2 96.0 1000.8 0.0 6.4 0.0
06:50 1.2 96.0 1000.9 0.0 6.4 0.0
06:55 1.2 96.0 1000.9 0.0 6.4 0.0
07:00 1.2 96.0 1000.8 0.0 6.4 0.0
Màxima 2.7 96.0 1000.9 3.2 6.4 0.2
Mínima 0.6 95.0 1000.1
Total 0.2